Retour au catalogue

IRIDIUM 129

ActifCommunicationsPO
NORAD 42958·PAYLOAD·🇺🇸 United States

Lancé Oct 9, 2017 depuis Vandenberg Space Force Base

Loading…

Prochains Passages (prochaines 24 heures)

TLE

FraisSource: CelesTrak SupGP

Époque: Sep 15, 2026, 00:58 UTC

1 42958C 17061D   26258.04062500  .00002073  00000+0  74121-3 0  2580
2 42958  86.4027 347.7079 0002407 100.4969   4.7168 14.34214314    10

Suivez IRIDIUM 129 en temps réel avec AllMySat

Download on the App Store